Location: Hannover
(52.3723°N, 9.7339°E)
Time: 16:38:23
(UTC+01:00)

ISS - Pass Details

Date: 10 February 2018
Orbit: 403 x 407 km, 51.6° (Epoch: 21 February)

Event Time Altitude Azimuth Distance (km) Brightness Sun altitude
Rises 18:39:36 0° 281° (WNW) 2,322 1.5 -11.8°
Reaches altitude 10° 18:41:53 10° 269° (W) 1,460 0.5 -12.2°
Maximum altitude 18:44:41 26° 210° (SSW) 829 -1.8 -12.6°
Drops below altitude 10° 18:47:28 10° 151° (SSE) 1,456 -1.2 -13.0°
Enters shadow 18:48:14 - 145° (SE) 1,735 -0.9 -13.2°
